Wetbulb
39.12 39.73 40.68 41.70 41.78 41.03 40.45 41.16 42.30 42.31 41.62 40.41 40.09 39.95 39.90 39.90 39.94 40.06 40.16 40.00 40.27 40.43 40.46 40.51 40.48 40.39 40.00 39.56 39.38 39.12 38.87 38.65 38.47 39.26 40.22 40.52 39.46 38.85 38.50 38.33 38.32 38.42 38.56 38.79 38.81 38.95 39.18 39.25 39.45 40.05 40.76 41.10 40.88 40.61 40.69 41.26 40.72 40.67 40.80 40.76 41.34 40.77 39.94 40.01 40.12 39.87 39.52 39.22 39.93
38.69 39.54 40.98 42.97 42.63 41.51 40.72 40.94 41.56 41.66 41.27 40.43 40.31 40.00 39.74 39.74 39.68 39.64 39.53 39.42 39.95 40.09 40.14 40.28 40.19 39.72 39.33 39.24 39.09 38.78 38.44 38.18 37.95 38.25 38.64 38.65 38.17 37.98 37.98 38.08 38.09 38.32 38.58 38.85 38.62 39.24 39.79 39.25 39.30 39.99 40.73 40.86 40.24 40.01 40.35 41.35 40.73 40.54 40.35 39.97 40.85 40.98 40.81 40.74 40.71 40.37 39.98 39.64 39.83
38.19 38.82 39.50 39.86 39.47 39.45 39.50 39.59 39.38 38.98 38.72 38.93 39.18 39.25 39.16 39.08 39.37 39.42 39.45 39.46 39.19 39.14 39.20 39.66 39.44 39.31 39.14 38.79 38.29 37.88 37.60 37.44 37.53 37.61 37.71 37.88 37.97 37.92 37.92 38.07 37.94 38.33 38.87 39.24 38.69 39.18 39.56 38.70 39.42 40.52 41.21 41.08 39.87 39.91 40.43 40.19 40.08 40.06 39.97 39.69 40.66 41.15 41.42 41.64 41.21 40.95 40.79 40.93 40.23
37.76 38.03 38.31 38.55 38.58 38.53 38.79 39.34 38.77 38.39 38.28 38.82 38.15 38.28 38.70 38.68 39.03 39.24 39.11 38.57 38.34 38.53 38.79 38.98 39.04 39.21 39.16 38.87 38.25 37.56 37.47 38.44 38.62 38.46 38.11 37.91 37.81 37.77 37.64 37.55 37.60 37.71 37.91 38.00 37.91 38.11 38.25 37.82 39.16 40.04 40.12 38.97 38.65 39.18 39.72 39.93 39.50 39.56 39.82 39.72 40.39 40.61 40.78 41.50 41.10 41.06 41.16 41.30 40.74
37.80 37.98 38.14 38.42 38.54 38.50 38.37 38.38 38.41 38.37 38.37 38.52 38.17 38.10 38.26 38.48 38.68 38.57 38.49 38.59 38.74 38.93 38.84 38.38 38.93 39.31 39.41 39.04 38.06 37.25 36.92 37.26 39.44 39.08 37.77 37.23 37.15 37.06 37.09 36.99 37.10 37.26 37.51 37.49 37.26 37.46 37.55 36.94 38.63 39.17 38.82 38.26 39.03 39.33 39.13 38.54 38.41 38.58 38.96 39.71 39.64 39.84 40.09 40.47 40.59 40.63 40.77 41.31 41.54
37.92 37.75 37.62 37.58 37.83 37.92 37.88 37.94 37.93 37.93 37.94 38.20 37.91 37.79 38.01 38.64 38.61 38.57 38.55 38.79 38.73 38.36 38.27 39.17 40.05 40.44 39.92 38.10 37.03 36.47 36.22 36.05 36.67 36.50 36.21 36.18 36.44 36.47 36.41 36.41 36.46 36.72 36.93 36.84 36.45 36.35 36.28 36.12 38.09 38.49 38.35 38.64 38.24 38.09 37.86 37.24 37.61 37.95 38.38 38.84 38.85 38.65 38.43 38.55 38.92 39.17 39.36 39.28 39.42
38.19 37.99 37.51 37.40 37.28 37.43 37.53 37.55 37.34 37.22 37.13 37.33 37.52 37.65 37.81 37.97 37.88 37.74 37.70 38.08 38.19 38.36 38.90 40.46 39.91 39.03 37.85 36.43 36.12 35.88 35.72 35.77 35.54 35.44 35.47 35.70 35.74 35.78 35.83 36.06 35.90 35.81 35.81 35.91 35.67 35.69 35.64 35.26 37.24 38.29 38.99 39.68 39.28 38.12 36.84 36.43 36.69 37.12 37.51 37.74 38.34 38.00 37.29 36.83 37.24 37.55 37.47 36.58 35.57
38.28 38.38 38.04 37.61 37.68 37.55 37.33 37.27 37.11 37.13 37.38 38.05 37.85 37.82 37.73 37.54 37.44 37.47 37.42 37.53 37.77 38.27 38.80 39.14 37.49 36.43 35.72 35.39 35.35 35.30 35.26 35.17 35.32 35.26 35.19 35.17 35.08 35.14 35.21 35.18 35.29 35.24 35.11 35.15 35.14 35.03 35.17 35.88 36.90 37.33 37.46 37.79 38.17 37.60 36.52 35.45 35.15 35.47 36.05 36.56 37.59 37.38 37.09 37.91 36.95 36.85 36.73 35.65 34.86
37.20 37.38 37.34 37.07 37.35 37.26 37.08 36.89 36.85 37.18 37.54 37.57 37.63 37.63 37.67 37.78 37.74 37.69 37.55 37.57 38.26 38.25 37.77 37.09 36.19 35.60 35.15 34.67 34.59 34.71 34.91 35.14 35.05 35.05 35.08 34.92 34.97 35.08 35.19 35.33 35.14 35.19 35.24 35.16 34.83 34.23 34.26 35.78 36.54 36.83 36.91 37.11 37.19 37.01 36.27 34.79 34.39 34.43 34.95 35.96 36.70 36.72 36.61 36.89 35.99 35.73 35.68 35.41 35.08
36.46 36.29 36.21 36.42 36.53 37.00 37.23 36.42 36.65 37.00 37.26 37.13 37.15 37.10 37.64 39.53 39.05 38.18 37.45 37.70 37.79 37.06 36.09 35.63 35.41 35.05 34.76 34.36 34.42 34.52 34.67 34.81 34.96 34.79 34.70 35.08 35.18 34.94 34.86 35.52 34.96 35.10 35.46 35.46 35.29 34.56 34.20 35.30 35.94 36.11 35.98 35.78 35.47 35.10 34.57 33.79 33.60 33.55 34.15 35.74 35.76 35.54 35.33 35.69 35.09 34.75 34.80 35.52 34.90
36.02 35.94 35.97 36.14 36.19 36.80 37.03 35.95 36.47 36.81 36.84 36.31 36.24 36.19 36.47 37.65 37.03 36.76 36.63 36.74 36.06 35.45 35.10 35.05 34.89 34.55 34.33 34.48 34.45 34.57 34.82 34.94 34.84 34.55 34.29 34.30 34.70 34.50 34.28 34.63 34.47 34.61 34.89 35.16 35.15 35.17 35.32 35.64 35.47 35.17 34.83 34.78 34.22 34.16 33.96 33.26 33.13 33.03 33.29 34.28 34.07 34.00 34.08 34.11 34.26 34.36 34.45 34.86 34.30
35.65 35.61 35.48 35.46 35.20 35.28 35.29 35.08 35.37 35.51 35.58 35.29 35.21 35.05 34.93 34.81 34.88 35.48 36.06 35.64 35.21 35.07 35.11 34.94 34.64 34.27 34.23 34.96 34.46 34.81 34.97 34.17 33.80 33.86 34.02 33.99 33.87 33.80 33.86 34.09 34.07 34.08 34.10 34.24 34.45 35.00 35.46 35.28 34.96 34.49 34.07 33.61 34.59 34.84 34.45 33.29 33.16 33.07 33.14 33.29 33.39 33.65 33.85 34.07 34.01 34.49 34.88 34.55 34.24
35.50 35.18 34.78 34.54 34.22 34.01 33.95 34.02 34.03 34.13 34.25 34.25 34.18 34.21 34.29 34.37 34.90 35.47 35.67 35.01 34.90 35.01 35.05 34.82 34.74 34.42 34.21 34.52 34.34 34.31 34.13 33.91 33.49 33.84 34.30 34.21 34.32 34.11 33.96 34.15 33.98 33.74 33.61 33.99 34.07 34.49 34.82 34.60 34.01 33.69 33.69 33.84 34.65 34.83 34.34 33.26 33.17 33.17 33.23 33.36 33.37 33.56 33.75 33.91 34.12 34.38 34.32 33.64 33.91
34.37 34.30 33.98 33.69 33.47 33.29 33.23 33.18 33.38 33.53 33.59 33.48 33.58 33.70 33.83 34.01 34.83 35.56 35.69 34.76 34.42 34.27 34.28 34.23 34.76 34.96 34.90 34.21 34.18 33.80 33.55 33.77 33.49 33.45 33.70 34.33 34.49 34.16 33.96 34.31 33.85 33.42 33.39 34.08 33.77 33.50 33.51 33.97 33.74 33.65 33.62 33.72 33.96 34.07 33.80 33.20 33.20 33.16 33.14 33.16 33.29 33.43 33.66 33.96 34.02 33.98 33.68 33.12 33.33
33.68 33.47 33.25 32.96 32.76 32.65 32.58 32.67 33.08 33.30 33.38 33.24 33.38 33.49 33.68 34.07 35.07 35.59 35.48 34.32 33.84 33.71 33.68 33.70 34.44 34.76 34.75 34.07 33.55 33.17 33.10 33.23 33.20 33.45 33.68 33.99 33.98 33.82 33.76 34.06 33.64 33.24 33.10 33.48 33.38 33.30 33.20 33.27 33.52 33.57 33.58 33.56 33.50 33.47 33.44 33.24 33.11 33.08 33.21 33.17 33.21 33.39 33.55 33.74 33.73 33.65 33.36 32.85 32.83
33.30 33.08 32.68 32.43 32.35 32.23 32.19 32.32 32.84 33.10 33.17 33.21 33.19 33.30 33.54 34.01 34.68 34.93 34.81 34.16 34.13 33.98 33.72 33.28 33.80 33.81 33.77 34.10 33.92 33.43 33.11 33.19 33.18 33.31 33.49 33.72 33.68 33.60 33.43 33.44 33.30 32.94 32.66 32.62 32.95 33.28 33.51 33.61 33.79 33.61 33.35 33.09 33.08 32.98 33.04 33.05 32.93 32.86 32.86 32.89 33.02 33.17 33.30 33.61 33.61 33.37 33.04 32.67 32.66
33.01 32.65 32.26 32.01 31.98 31.97 31.93 31.88 32.36 32.72 32.85 32.81 32.84 33.02 33.34 33.65 34.04 34.51 34.90 34.98 34.78 34.24 33.59 32.99 33.43 33.39 33.40 33.89 34.09 33.74 33.44 33.63 33.58 33.61 33.69 33.72 33.44 33.22 33.04 32.94 32.95 32.74 32.48 32.28 32.58 32.98 33.29 33.49 33.74 33.47 33.07 32.64 32.67 32.74 32.68 32.49 32.72 32.67 32.63 32.77 32.86 32.85 33.02 33.65 33.51 33.10 32.59 32.36 32.54
32.68 32.29 31.94 31.72 31.69 31.62 31.66 31.65 31.95 32.23 32.36 32.32 32.65 32.83 33.01 33.13 33.34 33.72 34.10 34.23 33.69 33.11 32.77 32.87 32.86 32.66 32.56 32.65 33.06 33.43 33.82 34.13 33.90 33.79 33.68 33.47 33.16 32.89 32.70 32.61 32.75 32.66 32.37 32.17 32.29 32.52 32.80 32.97 33.03 33.06 33.04 32.73 32.78 32.74 32.66 32.42 32.58 32.55 32.55 32.69 32.73 32.72 32.77 33.03 32.71 32.56 32.50 32.28 32.78
32.39 32.01 31.75 31.57 31.58 31.51 31.70 32.39 32.35 32.20 32.25 32.38 32.66 32.70 32.64 32.42 32.33 32.45 32.63 32.52 32.92 32.66 32.31 32.55 32.58 32.43 32.32 32.27 32.60 33.30 33.96 33.98 33.38 33.19 33.00 32.85 32.78 32.66 32.55 32.61 32.51 32.33 31.97 31.81 31.82 32.00 32.13 32.28 32.31 32.38 32.52 32.62 32.63 32.61 32.59 32.45 32.62 32.60 32.60 32.63 32.62 32.66 32.74 32.82 32.63 32.82 33.22 33.30 33.81
32.08 31.84 31.60 31.49 31.42 31.36 31.48 32.11 32.11 32.14 32.22 32.43 32.33 32.26 32.19 32.02 31.66 31.57 31.69 32.09 32.52 32.25 31.77 31.58 32.22 32.41 32.32 32.06 32.18 32.40 32.79 33.44 32.97 32.78 32.68 32.75 32.57 32.43 32.32 32.29 32.08 31.88 31.59 31.29 31.38 31.34 31.34 31.41 31.55 31.61 31.75 31.94 32.11 32.14 32.18 32.24 32.37 32.42 32.45 32.70 32.86 33.15 33.43 33.59 33.52 33.63 33.80 34.28 34.30
31.78 31.60 31.42 31.26 31.16 31.10 31.31 31.59 31.78 31.94 31.93 31.94 31.75 31.62 31.63 31.56 31.20 31.11 31.27 31.97 31.98 31.58 31.23 31.10 31.47 31.77 31.89 31.86 31.88 31.90 32.28 33.46 33.09 32.86 32.83 32.96 32.63 32.34 32.20 32.26 31.96 31.78 31.59 31.18 31.08 30.77 30.55 30.75 30.86 31.10 31.26 31.53 31.73 31.77 31.86 32.08 32.20 32.28 32.56 33.16 33.78 34.08 34.35 34.51 34.50 34.64 34.70 34.90 34.82
31.57 31.27 31.03 30.86 30.79 31.01 31.31 31.60 31.68 31.57 31.49 31.38 31.32 31.17 31.11 31.09 31.17 31.18 31.20 31.30 31.34 31.22 31.07 31.01 31.02 31.19 31.41 31.57 31.74 31.91 32.46 33.49 33.07 33.04 33.16 33.10 32.78 32.68 32.55 32.37 31.54 31.23 31.12 30.72 30.52 30.29 30.12 30.26 30.43 30.51 30.73 31.28 31.28 31.43 31.75 32.20 32.46 32.65 32.91 33.46 34.04 34.35 34.51 34.83 35.12 35.32 35.44 35.49 35.42
31.29 30.88 30.61 30.55 30.61 31.78 32.66 32.35 31.65 31.17 30.95 30.90 30.89 30.79 30.75 30.98 31.10 31.08 30.88 30.68 31.22 31.24 31.08 31.22 31.34 31.25 31.22 31.38 31.48 31.72 32.05 32.49 32.62 32.73 32.72 32.47 32.10 31.84 31.62 31.53 30.96 30.74 30.90 31.15 30.56 30.23 30.17 30.55 30.90 30.94 30.95 31.29 31.00 31.22 31.63 32.13 32.95 33.28 33.41 33.60 34.00 34.21 34.51 35.06 35.41 35.62 35.81 36.01 36.00
30.89 30.63 30.56 30.80 30.74 31.03 31.26 31.17 30.84 30.72 30.66 30.64 30.73 30.71 30.79 30.99 31.09 31.00 30.85 30.57 30.71 30.62 30.91 32.09 32.22 31.76 31.28 31.39 31.31 31.31 31.45 31.54 31.79 31.72 31.66 31.62 31.68 31.33 31.12 31.25 31.17 31.18 31.29 31.55 32.29 32.92 33.42 33.71 33.10 32.70 32.41 32.28 32.41 32.63 32.73 32.58 33.15 33.46 33.65 33.82 34.02 34.24 34.62 35.36 35.72 36.01 36.12 36.10 36.23
30.63 30.75 31.11 31.16 31.07 31.03 30.91 30.76 30.54 30.39 30.49 30.70 30.52 30.51 30.61 30.87 30.96 30.94 30.90 30.72 30.72 30.77 30.87 31.10 31.28 31.48 31.75 32.00 31.75 31.59 31.39 31.18 31.12 31.00 30.95 31.15 31.27 31.24 31.22 31.59 31.75 31.85 32.23 33.03 36.36 38.44 39.27 38.92 37.18 35.49 34.26 34.03 34.34 34.22 33.88 33.45 33.32 33.58 33.89 34.10 34.27 34.58 34.91 35.38 35.75 35.96 36.03 35.99 35.97
30.74 30.91 31.24 31.46 31.30 31.17 30.97 30.70 30.48 30.32 30.26 30.27 30.20 30.36 30.59 30.67 31.03 30.83 30.64 30.72 30.92 30.89 30.85 30.94 31.05 32.27 33.34 33.09 32.53 32.11 31.79 31.76 31.49 31.01 30.71 30.95 30.80 30.72 30.92 31.49 32.04 31.93 32.43 34.84 37.85 39.48 40.26 40.68 40.31 38.95 37.31 35.86 35.61 34.77 34.06 33.69 33.83 34.17 34.44 34.62 34.86 34.98 35.09 35.23 35.42 35.57 35.70 35.71 35.48
31.41 31.64 31.91 31.96 31.68 31.30 31.04 30.84 30.49 30.21 30.00 30.14 30.24 30.55 30.82 30.82 31.27 30.91 30.50 30.69 30.86 30.70 30.54 30.58 30.83 32.77 34.33 33.27 32.25 31.75 31.72 32.00 31.44 30.82 30.28 30.17 30.26 30.35 30.54 31.14 31.33 31.50 32.79 36.05 38.58 39.88 40.43 40.68 40.81 40.40 39.29 37.38 36.20 35.21 34.48 34.10 34.32 34.64 34.91 35.14 35.18 35.13 35.03 34.76 34.91 35.20 35.49 35.59 35.33
32.22 32.55 32.56 32.30 31.94 31.73 31.41 30.84 30.25 30.10 30.20 30.47 30.60 30.84 30.92 30.61 30.13 30.09 30.31 30.70 30.79 30.68 30.63 30.69 31.60 32.49 33.09 32.79 32.10 31.73 31.53 31.45 31.26 31.04 30.77 30.46 30.37 30.20 30.27 30.84 30.73 31.92 34.35 37.78 39.29 40.02 40.31 40.48 40.57 40.45 39.96 38.75 36.70 35.06 34.27 34.43 34.99 35.27 35.36 35.45 35.33 35.22 35.15 34.92 34.93 35.07 35.14 35.16 35.40
32.57 32.80 32.66 32.35 32.43 32.16 31.62 30.76 30.48 30.60 30.73 30.77 30.89 30.86 30.60 30.22 29.98 30.03 30.30 30.64 30.61 30.53 30.81 31.69 32.93 32.94 32.50 32.39 32.22 31.82 31.31 30.81 31.17 31.03 30.68 30.26 29.99 29.99 30.16 30.47 30.56 32.24 35.12 38.53 39.39 39.78 39.99 40.12 40.24 40.37 40.25 39.88 37.79 36.36 35.58 35.60 35.59 35.52 35.62 35.58 35.64 35.64 35.36 34.78 35.03 35.14 35.16 35.07 35.05
32.37 32.64 32.68 32.51 32.58 32.29 31.76 31.22 31.16 31.06 31.07 31.41 31.10 30.56 30.15 29.95 29.97 30.31 30.76 31.04 30.82 31.03 31.57 32.32 32.44 32.37 32.20 31.97 31.96 31.83 31.64 31.37 31.25 30.69 30.02 29.60 29.74 30.08 30.65 31.43 30.87 32.08 34.58 38.06 38.93 39.49 39.71 39.92 40.08 40.25 40.29 40.21 38.72 37.16 35.94 35.60 35.60 35.60 35.64 35.72 35.64 35.61 35.33 35.11 35.04 35.06 35.10 35.14 35.08
32.68 32.65 32.61 32.48 32.37 32.32 32.08 31.67 31.41 31.14 31.00 31.29 30.47 29.98 29.81 30.11 30.46 30.70 30.85 30.91 31.34 32.42 33.03 32.13 31.64 31.42 31.43 31.63 31.45 31.30 31.19 31.07 30.71 30.30 29.87 29.48 30.66 31.01 30.87 30.63 30.04 31.45 34.23 37.66 38.66 39.30 39.56 39.84 40.00 40.09 40.29 40.29 38.98 37.45 36.14 35.62 35.45 35.48 35.52 35.56 35.46 35.21 34.97 34.98 34.87 34.75 34.80 34.87 35.06
33.07 32.79 32.47 32.38 32.40 32.44 32.36 32.02 31.65 31.21 30.68 30.03 29.66 29.77 30.13 30.54 30.75 30.84 30.88 31.12 31.75 32.03 31.94 31.35 31.33 31.39 31.42 31.31 30.87 30.68 30.63 30.57 30.38 30.42 30.46 30.45 30.32 30.03 29.88 30.30 29.71 31.30 34.23 37.67 38.61 39.19 39.48 39.72 39.84 40.00 40.12 40.16 39.07 37.67 36.24 35.40 35.29 35.27 35.32 35.25 35.15 35.06 34.99 34.99 34.57 34.43 34.59 34.98 35.08
32.80 32.48 32.18 32.20 32.48 32.64 32.62 32.37 31.75 31.09 30.41 29.83 29.91 30.37 30.90 31.38 31.28 31.37 31.49 31.81 32.00 31.71 31.34 31.36 31.53 31.47 31.28 31.15 30.66 30.47 30.44 30.51 30.70 31.23 31.53 31.33 30.44 29.87 29.72 30.33 30.02 32.21 35.35 38.00 38.70 39.11 39.44 39.52 39.68 39.76 39.92 40.00 38.74 37.26 35.93 35.26 35.15 35.12 35.10 35.05 35.12 35.06 34.74 34.36 34.36 34.54 34.79 34.85 35.10
32.46 32.19 32.07 32.29 32.88 33.01 32.88 32.46 31.49 30.69 30.27 30.21 30.70 31.15 31.38 31.37 31.47 31.78 32.25 32.86 32.88 32.50 32.03 31.65 31.53 31.29 30.91 30.53 30.48 30.41 30.74 32.00 31.46 30.66 29.93 29.56 29.24 29.27 29.48 29.94 30.52 33.24 36.33 38.05 38.62 38.99 39.19 39.35 39.52 39.60 39.68 39.76 38.13 36.58 35.42 34.93 34.80 34.85 34.82 34.85 34.94 34.94 34.77 34.58 34.32 34.21 34.21 34.40 34.74
32.73 32.64 32.70 33.10 33.32 33.11 32.62 31.60 30.71 30.32 30.40 30.76 31.32 31.57 31.52 31.17 31.49 32.03 32.81 33.73 33.82 33.11 32.19 31.64 31.35 31.08 30.87 30.76 30.04 30.00 30.46 31.22 30.63 30.14 29.71 29.49 29.40 29.55 29.75 29.94 30.33 33.07 36.20 37.88 38.37 38.74 38.95 39.19 39.31 39.48 39.35 38.83 37.19 35.88 34.97 34.40 34.35 34.42 34.52 34.65 34.68 34.68 34.56 34.21 34.12 34.18 34.26 34.43 34.55
33.09 32.98 33.10 33.23 32.89 32.16 31.29 30.38 30.05 30.18 30.57 30.96 31.43 31.62 31.70 31.84 32.05 32.37 33.03 34.17 33.66 32.66 31.79 31.58 31.10 30.58 30.32 30.52 30.19 30.52 30.78 30.35 30.09 30.01 30.01 30.19 29.93 29.61 29.45 29.54 29.84 32.31 35.40 37.42 38.04 38.46 38.75 38.99 39.08 39.16 38.82 37.66 36.05 35.11 34.58 34.19 34.23 34.29 34.27 34.43 34.43 34.21 33.96 34.18 34.55 34.79 34.63 34.51 34.39
32.76 32.67 32.50 32.09 31.39 30.65 30.13 29.89 29.95 30.24 30.63 31.03 31.37 31.63 31.96 32.23 32.43 32.62 33.02 33.44 32.49 31.68 31.23 31.16 31.05 30.69 30.28 30.15 30.47 30.49 30.33 30.03 29.92 30.02 30.31 30.91 30.52 29.90 29.45 29.58 29.48 31.40 34.12 36.75 37.71 38.22 38.51 38.75 38.92 38.79 38.00 36.13 34.88 34.38 34.26 34.12 34.15 34.11 34.09 33.97 34.04 34.07 34.24 34.72 34.92 34.91 34.63 34.24 34.61
31.35 31.20 30.94 30.53 30.16 30.01 29.86 29.95 30.10 30.40 30.76 31.29 31.52 31.82 32.07 32.09 32.37 32.62 33.01 33.49 32.01 31.30 31.01 30.94 30.85 30.80 30.71 30.60 30.80 30.73 30.53 30.38 30.50 30.50 30.39 30.34 30.11 29.91 29.73 29.74 29.77 30.94 33.12 36.02 37.23 37.85 38.18 38.46 38.63 38.51 37.59 35.52 34.46 34.03 33.95 33.96 33.91 34.00 34.10 34.32 34.47 34.57 34.65 35.24 35.59 35.49 35.11 34.74 36.48
30.14 30.07 29.95 29.91 29.92 30.01 30.02 30.03 30.31 30.64 31.06 31.50 31.75 32.02 32.23 32.06 32.15 32.66 33.19 33.25 31.60 30.91 30.78 30.79 30.89 30.97 31.26 31.61 31.65 31.35 30.94 30.66 30.72 30.79 30.66 29.98 30.14 30.98 31.48 30.84 30.29 31.02 32.68 35.37 36.61 37.28 37.68 38.09 38.34 38.42 37.91 36.27 34.73 34.02 33.85 33.82 33.71 33.81 34.18 34.65 34.95 34.99 35.10 35.58 35.89 36.04 35.90 35.48 38.14
30.31 30.24 30.11 30.05 30.06 30.11 30.22 30.31 30.62 30.95 31.30 31.60 31.77 31.94 31.92 31.85 32.52 33.17 33.40 33.15 31.52 30.89 31.00 31.17 31.09 31.22 31.80 32.78 32.13 31.35 30.79 30.63 30.26 30.30 30.41 30.38 30.86 32.47 33.35 31.79 30.37 30.38 31.66 34.23 35.75 36.69 37.31 37.80 38.09 38.33 37.79 36.00 34.66 34.12 33.94 33.91 33.84 34.02 34.40 34.99 35.36 35.59 35.89 36.18 36.49 36.65 36.64 36.38 38.07
30.30 30.39 30.40 30.39 30.25 30.31 30.43 30.57 30.80 31.05 31.28 31.43 31.32 31.73 32.41 32.89 32.86 32.57 32.26 32.40 31.30 31.25 31.59 31.91 31.61 31.47 31.70 32.49 31.98 31.15 30.38 30.06 29.98 29.92 30.13 30.65 30.85 31.96 32.43 30.83 29.52 29.01 29.71 31.85 34.50 36.18 37.09 37.71 37.92 38.12 37.66 35.89 34.73 34.29 34.22 34.11 33.98 34.14 34.56 35.18 35.73 36.09 36.34 36.64 36.95 37.08 37.18 37.12 37.47
MSLP
1022.45 1022.53 1022.57 1022.65 1022.69 1022.81 1022.85 1022.85 1022.89 1022.89 1022.97 1023.01 1023.09 1023.09 1023.05 1023.13 1023.13 1023.09 1022.97 1022.97 1022.89 1022.85 1022.69 1022.57 1022.49 1022.33 1022.21 1022.13 1022.05 1022.01 1021.89 1021.85 1021.73 1021.65 1021.57 1021.49 1021.45 1021.37 1021.29 1021.21 1021.13 1021.09 1021.01 1020.93 1020.85 1020.85 1020.77 1020.69 1020.69 1020.65 1020.57 1020.45 1020.41 1020.33 1020.25 1020.09 1020.05 1020.01 1019.93 1019.85 1019.77 1019.69 1019.65 1019.61 1019.53 1019.45 1019.41 1019.37 1019.29
1022.57 1022.57 1022.61 1022.61 1022.69 1022.77 1022.85 1022.85 1022.89 1022.89 1022.93 1022.93 1022.97 1022.97 1022.97 1023.01 1023.01 1022.97 1022.93 1022.85 1022.77 1022.65 1022.57 1022.45 1022.37 1022.29 1022.17 1022.05 1021.97 1021.89 1021.85 1021.81 1021.69 1021.61 1021.57 1021.49 1021.41 1021.33 1021.25 1021.13 1021.09 1021.01 1020.93 1020.85 1020.85 1020.77 1020.69 1020.65 1020.61 1020.57 1020.45 1020.33 1020.29 1020.21 1020.09 1019.93 1019.89 1019.85 1019.81 1019.73 1019.65 1019.57 1019.49 1019.41 1019.37 1019.29 1019.17 1019.13 1019.05
1022.57 1022.61 1022.65 1022.69 1022.77 1022.81 1022.85 1022.93 1022.93 1022.93 1022.89 1022.89 1022.85 1022.85 1022.89 1022.93 1022.89 1022.85 1022.81 1022.73 1022.61 1022.57 1022.53 1022.41 1022.29 1022.17 1022.13 1022.01 1021.93 1021.85 1021.81 1021.77 1021.69 1021.65 1021.57 1021.49 1021.37 1021.29 1021.17 1021.13 1021.01 1020.93 1020.85 1020.77 1020.73 1020.69 1020.61 1020.57 1020.57 1020.45 1020.37 1020.25 1020.21 1020.13 1020.01 1019.85 1019.85 1019.77 1019.73 1019.69 1019.53 1019.45 1019.41 1019.29 1019.17 1019.09 1019.01 1018.97 1018.89
1022.57 1022.61 1022.65 1022.69 1022.77 1022.85 1022.85 1022.85 1022.85 1022.89 1022.85 1022.85 1022.85 1022.85 1022.85 1022.81 1022.77 1022.73 1022.69 1022.65 1022.57 1022.49 1022.41 1022.33 1022.21 1022.09 1022.01 1021.97 1021.85 1021.81 1021.73 1021.69 1021.61 1021.57 1021.53 1021.41 1021.33 1021.21 1021.13 1021.05 1020.97 1020.89 1020.81 1020.73 1020.69 1020.57 1020.53 1020.49 1020.41 1020.33 1020.29 1020.21 1020.13 1020.05 1019.93 1019.81 1019.73 1019.69 1019.65 1019.57 1019.45 1019.41 1019.33 1019.21 1019.09 1018.97 1018.93 1018.85 1018.77
1022.57 1022.57 1022.61 1022.69 1022.69 1022.77 1022.81 1022.81 1022.85 1022.85 1022.81 1022.81 1022.81 1022.81 1022.77 1022.73 1022.69 1022.69 1022.61 1022.57 1022.49 1022.37 1022.29 1022.21 1022.13 1022.01 1021.89 1021.85 1021.85 1021.77 1021.69 1021.65 1021.57 1021.49 1021.45 1021.37 1021.29 1021.13 1021.05 1020.97 1020.93 1020.85 1020.73 1020.69 1020.57 1020.53 1020.45 1020.41 1020.33 1020.29 1020.21 1020.13 1020.05 1019.93 1019.85 1019.73 1019.69 1019.65 1019.53 1019.41 1019.37 1019.29 1019.25 1019.17 1019.01 1018.93 1018.85 1018.81 1018.69
1022.61 1022.57 1022.61 1022.69 1022.69 1022.69 1022.73 1022.77 1022.77 1022.77 1022.77 1022.77 1022.77 1022.81 1022.77 1022.69 1022.61 1022.57 1022.57 1022.57 1022.37 1022.25 1022.17 1022.09 1022.01 1021.89 1021.85 1021.85 1021.81 1021.73 1021.69 1021.61 1021.53 1021.45 1021.41 1021.29 1021.17 1021.09 1021.01 1020.97 1020.85 1020.77 1020.69 1020.61 1020.53 1020.49 1020.41 1020.41 1020.29 1020.17 1020.09 1020.01 1019.89 1019.77 1019.69 1019.69 1019.65 1019.57 1019.49 1019.41 1019.29 1019.21 1019.13 1019.13 1018.97 1018.89 1018.85 1018.85 1018.73
1022.61 1022.61 1022.65 1022.69 1022.69 1022.69 1022.69 1022.69 1022.69 1022.73 1022.77 1022.77 1022.77 1022.77 1022.73 1022.69 1022.57 1022.57 1022.53 1022.41 1022.29 1022.21 1022.09 1022.01 1021.93 1021.89 1021.85 1021.85 1021.77 1021.69 1021.65 1021.57 1021.45 1021.41 1021.37 1021.29 1021.13 1021.05 1020.97 1020.85 1020.77 1020.69 1020.61 1020.57 1020.49 1020.41 1020.37 1020.29 1020.25 1020.13 1020.01 1019.85 1019.77 1019.69 1019.61 1019.61 1019.61 1019.57 1019.45 1019.37 1019.25 1019.17 1019.13 1019.01 1018.93 1018.85 1018.85 1018.77 1018.77
1022.61 1022.61 1022.65 1022.65 1022.69 1022.69 1022.69 1022.69 1022.69 1022.73 1022.73 1022.73 1022.73 1022.73 1022.69 1022.57 1022.57 1022.49 1022.41 1022.33 1022.25 1022.13 1022.05 1022.01 1021.93 1021.89 1021.85 1021.85 1021.77 1021.69 1021.61 1021.53 1021.41 1021.33 1021.29 1021.17 1021.13 1020.97 1020.89 1020.81 1020.69 1020.65 1020.57 1020.49 1020.45 1020.41 1020.33 1020.25 1020.13 1020.05 1019.97 1019.85 1019.77 1019.65 1019.57 1019.57 1019.57 1019.53 1019.45 1019.33 1019.17 1019.09 1019.01 1018.93 1018.85 1018.81 1018.77 1018.69 1018.69
1022.65 1022.65 1022.65 1022.65 1022.65 1022.69 1022.69 1022.69 1022.69 1022.73 1022.73 1022.69 1022.69 1022.65 1022.57 1022.53 1022.53 1022.45 1022.41 1022.29 1022.17 1022.09 1022.01 1022.01 1021.89 1021.85 1021.81 1021.77 1021.69 1021.61 1021.57 1021.45 1021.37 1021.29 1021.21 1021.13 1021.05 1020.97 1020.85 1020.77 1020.69 1020.57 1020.49 1020.41 1020.37 1020.29 1020.25 1020.13 1020.05 1019.97 1019.85 1019.81 1019.73 1019.61 1019.53 1019.53 1019.53 1019.49 1019.41 1019.29 1019.13 1019.01 1018.93 1018.85 1018.85 1018.77 1018.73 1018.69 1018.61
1022.69 1022.69 1022.69 1022.69 1022.69 1022.69 1022.69 1022.69 1022.69 1022.69 1022.69 1022.69 1022.65 1022.57 1022.53 1022.45 1022.41 1022.37 1022.29 1022.21 1022.09 1022.01 1022.01 1021.93 1021.85 1021.81 1021.73 1021.69 1021.65 1021.57 1021.45 1021.41 1021.29 1021.25 1021.13 1021.05 1020.97 1020.89 1020.81 1020.69 1020.65 1020.57 1020.41 1020.33 1020.29 1020.25 1020.17 1020.09 1020.01 1019.89 1019.81 1019.73 1019.69 1019.61 1019.53 1019.49 1019.49 1019.45 1019.33 1019.17 1019.09 1018.97 1018.85 1018.81 1018.81 1018.73 1018.65 1018.57 1018.57
1022.73 1022.73 1022.73 1022.73 1022.69 1022.69 1022.69 1022.69 1022.69 1022.69 1022.69 1022.69 1022.65 1022.57 1022.53 1022.41 1022.37 1022.29 1022.21 1022.13 1022.09 1022.01 1021.93 1021.85 1021.81 1021.73 1021.69 1021.65 1021.57 1021.45 1021.37 1021.29 1021.21 1021.13 1021.05 1020.97 1020.93 1020.85 1020.77 1020.69 1020.57 1020.49 1020.41 1020.29 1020.21 1020.13 1020.09 1020.01 1019.93 1019.85 1019.73 1019.65 1019.65 1019.57 1019.49 1019.41 1019.41 1019.33 1019.21 1019.13 1019.05 1018.97 1018.85 1018.73 1018.69 1018.65 1018.57 1018.49 1018.41
1022.77 1022.73 1022.69 1022.69 1022.69 1022.69 1022.69 1022.73 1022.69 1022.69 1022.69 1022.69 1022.65 1022.57 1022.49 1022.41 1022.33 1022.25 1022.17 1022.13 1022.09 1022.01 1021.85 1021.77 1021.69 1021.69 1021.65 1021.53 1021.45 1021.37 1021.29 1021.25 1021.17 1021.09 1020.97 1020.93 1020.85 1020.73 1020.69 1020.61 1020.53 1020.41 1020.33 1020.25 1020.17 1020.13 1020.01 1019.97 1019.85 1019.77 1019.69 1019.61 1019.57 1019.49 1019.41 1019.33 1019.29 1019.21 1019.09 1018.97 1018.89 1018.85 1018.73 1018.61 1018.57 1018.49 1018.45 1018.37 1018.29
1022.73 1022.73 1022.69 1022.69 1022.69 1022.69 1022.73 1022.77 1022.77 1022.77 1022.73 1022.69 1022.61 1022.53 1022.41 1022.33 1022.29 1022.17 1022.13 1022.05 1022.01 1021.89 1021.81 1021.69 1021.65 1021.61 1021.57 1021.45 1021.37 1021.29 1021.17 1021.13 1021.05 1020.97 1020.93 1020.85 1020.73 1020.69 1020.57 1020.53 1020.41 1020.33 1020.29 1020.17 1020.09 1020.01 1019.97 1019.89 1019.85 1019.73 1019.65 1019.53 1019.41 1019.37 1019.29 1019.29 1019.17 1019.09 1018.97 1018.85 1018.77 1018.69 1018.61 1018.45 1018.41 1018.33 1018.29 1018.25 1018.17
1022.69 1022.73 1022.73 1022.73 1022.73 1022.77 1022.81 1022.81 1022.81 1022.77 1022.73 1022.69 1022.57 1022.49 1022.41 1022.29 1022.21 1022.13 1022.05 1022.01 1021.93 1021.85 1021.73 1021.69 1021.57 1021.49 1021.41 1021.37 1021.29 1021.17 1021.13 1021.05 1020.97 1020.89 1020.81 1020.69 1020.65 1020.57 1020.53 1020.41 1020.29 1020.25 1020.17 1020.09 1020.01 1019.97 1019.89 1019.81 1019.69 1019.65 1019.57 1019.41 1019.29 1019.21 1019.17 1019.13 1019.05 1018.97 1018.85 1018.77 1018.65 1018.57 1018.41 1018.33 1018.29 1018.21 1018.13 1018.09 1018.01
1022.73 1022.73 1022.77 1022.77 1022.81 1022.85 1022.85 1022.85 1022.85 1022.77 1022.73 1022.69 1022.53 1022.41 1022.33 1022.25 1022.13 1022.05 1022.01 1021.93 1021.89 1021.81 1021.69 1021.65 1021.53 1021.41 1021.29 1021.25 1021.21 1021.13 1021.05 1020.97 1020.89 1020.85 1020.73 1020.65 1020.57 1020.49 1020.41 1020.29 1020.21 1020.13 1020.05 1019.97 1019.89 1019.85 1019.77 1019.69 1019.61 1019.53 1019.41 1019.29 1019.21 1019.09 1019.01 1018.97 1018.89 1018.81 1018.69 1018.61 1018.53 1018.41 1018.29 1018.17 1018.09 1018.01 1018.01 1017.93 1017.85
1022.77 1022.77 1022.81 1022.85 1022.85 1022.85 1022.85 1022.85 1022.81 1022.73 1022.69 1022.61 1022.45 1022.37 1022.29 1022.17 1022.05 1022.01 1021.97 1021.85 1021.81 1021.69 1021.65 1021.57 1021.45 1021.33 1021.25 1021.13 1021.09 1021.01 1020.93 1020.85 1020.81 1020.73 1020.65 1020.57 1020.45 1020.41 1020.29 1020.21 1020.13 1020.01 1019.97 1019.85 1019.77 1019.69 1019.57 1019.53 1019.41 1019.33 1019.25 1019.13 1019.09 1018.97 1018.85 1018.77 1018.69 1018.61 1018.53 1018.41 1018.33 1018.25 1018.13 1018.01 1017.93 1017.85 1017.77 1017.73 1017.69
1022.85 1022.85 1022.85 1022.85 1022.85 1022.89 1022.89 1022.85 1022.77 1022.69 1022.65 1022.57 1022.41 1022.29 1022.25 1022.13 1022.01 1021.97 1021.85 1021.77 1021.69 1021.61 1021.57 1021.45 1021.37 1021.29 1021.13 1021.05 1020.97 1020.93 1020.85 1020.77 1020.69 1020.61 1020.57 1020.45 1020.37 1020.29 1020.17 1020.09 1020.01 1019.89 1019.85 1019.77 1019.65 1019.53 1019.41 1019.33 1019.25 1019.17 1019.09 1018.97 1018.89 1018.81 1018.69 1018.61 1018.49 1018.41 1018.29 1018.17 1018.09 1018.01 1017.89 1017.81 1017.69 1017.65 1017.61 1017.57 1017.49
1022.85 1022.85 1022.85 1022.85 1022.89 1022.89 1022.85 1022.81 1022.69 1022.65 1022.57 1022.49 1022.37 1022.25 1022.13 1022.05 1022.01 1021.89 1021.77 1021.69 1021.65 1021.57 1021.49 1021.41 1021.29 1021.17 1021.13 1021.01 1020.93 1020.85 1020.77 1020.65 1020.57 1020.49 1020.41 1020.29 1020.21 1020.13 1020.01 1019.93 1019.85 1019.77 1019.69 1019.61 1019.53 1019.41 1019.29 1019.13 1019.05 1018.97 1018.93 1018.85 1018.69 1018.57 1018.49 1018.41 1018.29 1018.17 1018.05 1017.97 1017.85 1017.73 1017.69 1017.57 1017.53 1017.45 1017.41 1017.33 1017.25
1022.89 1022.89 1022.89 1022.89 1022.85 1022.85 1022.77 1022.73 1022.65 1022.57 1022.45 1022.37 1022.29 1022.17 1022.05 1021.97 1021.93 1021.85 1021.73 1021.65 1021.57 1021.45 1021.41 1021.29 1021.17 1021.09 1020.97 1020.89 1020.85 1020.69 1020.61 1020.53 1020.45 1020.37 1020.29 1020.13 1020.09 1020.01 1019.89 1019.77 1019.69 1019.61 1019.57 1019.45 1019.37 1019.29 1019.13 1019.01 1018.89 1018.85 1018.73 1018.61 1018.49 1018.37 1018.29 1018.13 1018.01 1017.93 1017.81 1017.69 1017.57 1017.49 1017.41 1017.37 1017.29 1017.25 1017.17 1017.09 1017.01
1022.93 1022.93 1022.89 1022.85 1022.81 1022.73 1022.69 1022.65 1022.57 1022.45 1022.37 1022.25 1022.13 1022.09 1022.01 1021.93 1021.85 1021.73 1021.69 1021.53 1021.41 1021.33 1021.29 1021.21 1021.13 1020.97 1020.85 1020.77 1020.69 1020.57 1020.49 1020.41 1020.33 1020.21 1020.09 1020.01 1019.93 1019.85 1019.73 1019.65 1019.57 1019.49 1019.41 1019.33 1019.21 1019.13 1018.97 1018.85 1018.73 1018.65 1018.57 1018.41 1018.29 1018.13 1018.01 1017.89 1017.77 1017.65 1017.53 1017.41 1017.33 1017.25 1017.13 1017.09 1017.01 1016.97 1016.89 1016.81 1016.73
1022.89 1022.85 1022.81 1022.73 1022.69 1022.65 1022.57 1022.49 1022.41 1022.33 1022.25 1022.13 1022.09 1022.01 1021.89 1021.81 1021.73 1021.65 1021.57 1021.41 1021.29 1021.21 1021.13 1021.09 1020.97 1020.89 1020.77 1020.69 1020.57 1020.45 1020.37 1020.25 1020.17 1020.09 1019.97 1019.85 1019.77 1019.69 1019.57 1019.49 1019.41 1019.33 1019.25 1019.17 1019.09 1018.97 1018.85 1018.73 1018.57 1018.45 1018.33 1018.21 1018.09 1017.93 1017.77 1017.61 1017.49 1017.37 1017.29 1017.17 1017.05 1016.97 1016.85 1016.81 1016.69 1016.65 1016.57 1016.53 1016.45
1022.81 1022.73 1022.69 1022.65 1022.57 1022.53 1022.41 1022.37 1022.29 1022.21 1022.13 1022.05 1021.97 1021.85 1021.77 1021.69 1021.57 1021.49 1021.37 1021.29 1021.17 1021.13 1021.01 1020.97 1020.85 1020.77 1020.69 1020.57 1020.45 1020.33 1020.21 1020.09 1020.01 1019.93 1019.85 1019.69 1019.61 1019.53 1019.41 1019.37 1019.29 1019.21 1019.13 1019.01 1018.89 1018.81 1018.69 1018.53 1018.37 1018.25 1018.09 1017.93 1017.81 1017.69 1017.53 1017.41 1017.25 1017.13 1016.97 1016.85 1016.73 1016.69 1016.61 1016.53 1016.45 1016.41 1016.29 1016.21 1016.13
1022.65 1022.57 1022.57 1022.53 1022.45 1022.41 1022.29 1022.25 1022.17 1022.13 1022.01 1021.93 1021.85 1021.73 1021.65 1021.57 1021.41 1021.33 1021.25 1021.13 1021.05 1020.97 1020.89 1020.81 1020.69 1020.61 1020.53 1020.41 1020.33 1020.21 1020.09 1019.97 1019.85 1019.77 1019.69 1019.61 1019.53 1019.41 1019.33 1019.29 1019.17 1019.13 1018.97 1018.85 1018.73 1018.65 1018.49 1018.29 1018.13 1017.97 1017.85 1017.69 1017.53 1017.41 1017.29 1017.17 1017.01 1016.85 1016.73 1016.57 1016.45 1016.37 1016.29 1016.25 1016.17 1016.13 1016.05 1015.93 1015.85
1022.53 1022.49 1022.45 1022.41 1022.37 1022.29 1022.21 1022.13 1022.09 1022.01 1021.93 1021.85 1021.69 1021.61 1021.53 1021.41 1021.29 1021.17 1021.09 1021.01 1020.93 1020.85 1020.73 1020.65 1020.57 1020.45 1020.41 1020.29 1020.21 1020.13 1020.01 1019.89 1019.77 1019.65 1019.57 1019.53 1019.41 1019.29 1019.21 1019.13 1019.05 1018.93 1018.81 1018.69 1018.57 1018.41 1018.29 1018.01 1017.81 1017.61 1017.49 1017.37 1017.21 1017.09 1016.97 1016.85 1016.73 1016.61 1016.53 1016.37 1016.21 1016.13 1016.01 1015.97 1015.89 1015.85 1015.77 1015.65 1015.57
1022.45 1022.41 1022.37 1022.29 1022.25 1022.17 1022.13 1022.05 1022.01 1021.89 1021.81 1021.69 1021.57 1021.49 1021.41 1021.29 1021.13 1021.09 1020.97 1020.89 1020.81 1020.73 1020.65 1020.57 1020.45 1020.37 1020.25 1020.13 1020.05 1019.97 1019.89 1019.81 1019.69 1019.61 1019.49 1019.37 1019.29 1019.17 1019.09 1018.97 1018.85 1018.69 1018.57 1018.45 1018.29 1018.05 1017.85 1017.65 1017.45 1017.29 1017.13 1017.01 1016.89 1016.73 1016.61 1016.53 1016.45 1016.37 1016.25 1016.13 1016.01 1015.89 1015.77 1015.65 1015.61 1015.57 1015.53 1015.41 1015.29
1022.37 1022.33 1022.29 1022.17 1022.13 1022.09 1022.01 1021.97 1021.85 1021.77 1021.65 1021.53 1021.41 1021.33 1021.25 1021.13 1021.01 1020.97 1020.89 1020.85 1020.69 1020.61 1020.53 1020.41 1020.33 1020.21 1020.09 1020.01 1019.89 1019.81 1019.69 1019.65 1019.57 1019.49 1019.41 1019.29 1019.13 1019.05 1018.93 1018.85 1018.69 1018.57 1018.45 1018.29 1018.01 1017.81 1017.57 1017.37 1017.13 1016.97 1016.85 1016.73 1016.57 1016.49 1016.37 1016.29 1016.17 1016.09 1015.97 1015.85 1015.77 1015.69 1015.57 1015.45 1015.37 1015.29 1015.25 1015.17 1015.05
1022.29 1022.25 1022.13 1022.05 1022.01 1022.01 1021.89 1021.77 1021.69 1021.61 1021.53 1021.41 1021.33 1021.25 1021.13 1020.97 1020.93 1020.85 1020.81 1020.73 1020.61 1020.49 1020.41 1020.29 1020.25 1020.13 1019.97 1019.85 1019.81 1019.69 1019.61 1019.49 1019.41 1019.33 1019.29 1019.17 1019.05 1018.93 1018.81 1018.65 1018.53 1018.41 1018.29 1018.05 1017.77 1017.57 1017.33 1017.13 1016.89 1016.73 1016.61 1016.49 1016.37 1016.25 1016.13 1016.01 1015.89 1015.81 1015.73 1015.65 1015.57 1015.49 1015.41 1015.29 1015.17 1015.05 1014.93 1014.85 1014.73
1022.17 1022.13 1022.01 1022.01 1021.93 1021.85 1021.77 1021.65 1021.57 1021.45 1021.37 1021.29 1021.13 1021.05 1020.97 1020.85 1020.85 1020.77 1020.69 1020.61 1020.49 1020.41 1020.29 1020.17 1020.05 1019.93 1019.85 1019.73 1019.69 1019.57 1019.49 1019.37 1019.29 1019.17 1019.09 1018.97 1018.89 1018.77 1018.61 1018.45 1018.29 1018.17 1018.01 1017.81 1017.57 1017.33 1017.13 1016.93 1016.69 1016.57 1016.41 1016.29 1016.13 1016.01 1015.89 1015.77 1015.65 1015.57 1015.45 1015.41 1015.37 1015.29 1015.21 1015.13 1014.97 1014.85 1014.69 1014.57 1014.41
1022.01 1022.01 1021.93 1021.93 1021.85 1021.73 1021.61 1021.57 1021.45 1021.33 1021.21 1021.13 1021.01 1020.93 1020.85 1020.85 1020.77 1020.69 1020.57 1020.49 1020.37 1020.29 1020.17 1020.05 1019.85 1019.77 1019.69 1019.65 1019.53 1019.41 1019.33 1019.25 1019.13 1019.01 1018.93 1018.85 1018.69 1018.57 1018.41 1018.29 1018.13 1017.97 1017.77 1017.57 1017.37 1017.13 1016.93 1016.73 1016.53 1016.33 1016.13 1016.01 1015.89 1015.77 1015.65 1015.57 1015.41 1015.33 1015.25 1015.17 1015.13 1015.05 1014.97 1014.89 1014.77 1014.61 1014.45 1014.33 1014.17
1021.89 1021.85 1021.85 1021.77 1021.69 1021.61 1021.53 1021.41 1021.29 1021.13 1021.01 1020.93 1020.85 1020.85 1020.81 1020.73 1020.65 1020.57 1020.49 1020.37 1020.29 1020.17 1020.05 1019.85 1019.77 1019.69 1019.61 1019.49 1019.41 1019.29 1019.13 1019.01 1018.93 1018.85 1018.81 1018.69 1018.57 1018.37 1018.21 1018.01 1017.89 1017.77 1017.57 1017.37 1017.17 1016.93 1016.69 1016.45 1016.29 1016.09 1015.93 1015.73 1015.65 1015.53 1015.41 1015.29 1015.21 1015.13 1015.05 1014.97 1014.89 1014.85 1014.77 1014.65 1014.53 1014.37 1014.25 1014.09 1013.97
1021.73 1021.73 1021.69 1021.65 1021.57 1021.49 1021.37 1021.21 1021.09 1020.97 1020.89 1020.85 1020.81 1020.73 1020.69 1020.61 1020.57 1020.45 1020.33 1020.21 1020.13 1019.97 1019.81 1019.69 1019.69 1019.57 1019.49 1019.33 1019.25 1019.13 1019.01 1018.85 1018.77 1018.69 1018.61 1018.53 1018.33 1018.17 1018.01 1017.85 1017.69 1017.57 1017.41 1017.21 1016.97 1016.73 1016.45 1016.25 1016.05 1015.85 1015.69 1015.53 1015.41 1015.29 1015.21 1015.09 1014.97 1014.93 1014.85 1014.77 1014.69 1014.57 1014.49 1014.41 1014.29 1014.13 1014.01 1013.85 1013.73
1021.61 1021.61 1021.57 1021.53 1021.41 1021.29 1021.13 1021.01 1020.93 1020.85 1020.81 1020.77 1020.69 1020.65 1020.57 1020.53 1020.41 1020.29 1020.17 1020.05 1019.93 1019.81 1019.69 1019.61 1019.53 1019.41 1019.29 1019.13 1019.05 1018.97 1018.85 1018.73 1018.61 1018.49 1018.41 1018.29 1018.13 1017.97 1017.81 1017.65 1017.57 1017.41 1017.25 1016.97 1016.69 1016.45 1016.21 1016.01 1015.85 1015.65 1015.49 1015.29 1015.13 1015.05 1014.97 1014.85 1014.81 1014.69 1014.61 1014.53 1014.45 1014.33 1014.25 1014.13 1014.01 1013.89 1013.73 1013.61 1013.45
1021.45 1021.41 1021.41 1021.37 1021.29 1021.13 1020.97 1020.85 1020.81 1020.73 1020.69 1020.65 1020.57 1020.57 1020.45 1020.33 1020.21 1020.09 1020.01 1019.89 1019.81 1019.69 1019.57 1019.45 1019.37 1019.25 1019.13 1018.97 1018.85 1018.77 1018.69 1018.57 1018.41 1018.29 1018.13 1018.05 1017.93 1017.81 1017.65 1017.45 1017.33 1017.17 1016.97 1016.69 1016.45 1016.25 1016.01 1015.81 1015.57 1015.41 1015.21 1015.01 1014.93 1014.81 1014.73 1014.69 1014.57 1014.49 1014.41 1014.29 1014.17 1014.13 1014.01 1013.89 1013.81 1013.65 1013.45 1013.29 1013.17
1021.29 1021.29 1021.25 1021.13 1021.05 1020.93 1020.81 1020.73 1020.69 1020.61 1020.61 1020.57 1020.45 1020.37 1020.29 1020.17 1020.09 1019.97 1019.81 1019.69 1019.57 1019.49 1019.41 1019.29 1019.17 1019.05 1018.93 1018.85 1018.77 1018.65 1018.49 1018.29 1018.17 1018.09 1018.01 1017.85 1017.77 1017.65 1017.45 1017.29 1017.09 1016.89 1016.69 1016.45 1016.25 1016.01 1015.81 1015.57 1015.41 1015.17 1014.97 1014.81 1014.69 1014.61 1014.57 1014.45 1014.37 1014.29 1014.17 1014.05 1013.97 1013.85 1013.77 1013.65 1013.49 1013.33 1013.17 1013.01 1012.89
1021.13 1021.13 1021.05 1020.97 1020.85 1020.77 1020.69 1020.61 1020.57 1020.53 1020.49 1020.41 1020.29 1020.17 1020.09 1020.01 1019.93 1019.81 1019.65 1019.49 1019.37 1019.29 1019.17 1019.09 1018.97 1018.85 1018.73 1018.65 1018.57 1018.49 1018.33 1018.13 1018.01 1017.89 1017.81 1017.69 1017.57 1017.41 1017.25 1017.01 1016.85 1016.65 1016.49 1016.29 1016.05 1015.81 1015.57 1015.37 1015.17 1014.97 1014.77 1014.61 1014.53 1014.45 1014.37 1014.25 1014.13 1014.05 1013.93 1013.85 1013.73 1013.61 1013.45 1013.29 1013.17 1013.01 1012.89 1012.77 1012.61
1020.93 1020.93 1020.85 1020.77 1020.69 1020.65 1020.57 1020.53 1020.45 1020.41 1020.37 1020.29 1020.17 1020.05 1019.93 1019.81 1019.69 1019.61 1019.45 1019.29 1019.25 1019.13 1019.01 1018.89 1018.77 1018.69 1018.61 1018.45 1018.37 1018.25 1018.13 1018.01 1017.85 1017.73 1017.61 1017.49 1017.33 1017.17 1016.97 1016.77 1016.57 1016.41 1016.25 1016.05 1015.85 1015.61 1015.41 1015.17 1014.97 1014.73 1014.57 1014.45 1014.37 1014.25 1014.13 1014.05 1013.93 1013.81 1013.69 1013.61 1013.49 1013.37 1013.21 1013.01 1012.85 1012.73 1012.57 1012.45 1012.29
1020.73 1020.69 1020.69 1020.69 1020.57 1020.53 1020.49 1020.41 1020.37 1020.29 1020.21 1020.13 1020.01 1019.93 1019.77 1019.65 1019.53 1019.41 1019.29 1019.17 1019.13 1018.97 1018.85 1018.73 1018.61 1018.53 1018.41 1018.29 1018.17 1018.05 1017.93 1017.81 1017.69 1017.57 1017.41 1017.29 1017.13 1016.97 1016.77 1016.57 1016.33 1016.17 1016.01 1015.81 1015.61 1015.41 1015.17 1014.97 1014.77 1014.57 1014.41 1014.29 1014.17 1014.05 1013.93 1013.85 1013.69 1013.61 1013.49 1013.37 1013.25 1013.09 1012.93 1012.73 1012.57 1012.41 1012.29 1012.13 1011.97
1020.57 1020.57 1020.57 1020.57 1020.49 1020.41 1020.33 1020.29 1020.25 1020.17 1020.05 1019.93 1019.85 1019.69 1019.57 1019.49 1019.37 1019.25 1019.13 1019.01 1018.97 1018.85 1018.69 1018.57 1018.45 1018.33 1018.21 1018.09 1018.01 1017.85 1017.69 1017.57 1017.53 1017.41 1017.25 1017.09 1016.97 1016.81 1016.57 1016.33 1016.13 1015.97 1015.81 1015.57 1015.41 1015.21 1014.97 1014.81 1014.61 1014.41 1014.29 1014.13 1014.01 1013.85 1013.73 1013.65 1013.53 1013.41 1013.29 1013.13 1012.97 1012.77 1012.61 1012.45 1012.29 1012.13 1011.93 1011.77 1011.57
1020.41 1020.37 1020.41 1020.41 1020.37 1020.29 1020.21 1020.13 1020.09 1020.01 1019.85 1019.77 1019.65 1019.57 1019.41 1019.33 1019.25 1019.09 1018.97 1018.85 1018.85 1018.73 1018.65 1018.49 1018.29 1018.13 1018.01 1017.89 1017.73 1017.57 1017.45 1017.33 1017.29 1017.17 1017.05 1016.89 1016.73 1016.57 1016.41 1016.13 1015.89 1015.69 1015.57 1015.41 1015.21 1015.05 1014.85 1014.61 1014.41 1014.25 1014.09 1014.01 1013.85 1013.73 1013.61 1013.49 1013.33 1013.21 1013.09 1012.93 1012.69 1012.49 1012.29 1012.17 1012.01 1011.85 1011.65 1011.41 1011.17
1020.25 1020.25 1020.25 1020.25 1020.17 1020.13 1020.05 1020.01 1019.89 1019.81 1019.69 1019.61 1019.53 1019.41 1019.29 1019.17 1019.05 1018.89 1018.77 1018.69 1018.69 1018.57 1018.49 1018.33 1018.13 1017.97 1017.85 1017.69 1017.57 1017.41 1017.25 1017.09 1017.01 1016.93 1016.85 1016.69 1016.49 1016.29 1016.13 1015.97 1015.73 1015.53 1015.37 1015.21 1015.05 1014.85 1014.69 1014.49 1014.29 1014.09 1013.97 1013.85 1013.73 1013.61 1013.45 1013.29 1013.13 1012.97 1012.85 1012.69 1012.41 1012.17 1011.97 1011.85 1011.69 1011.57 1011.33 1011.13 1010.89
1020.13 1020.09 1020.05 1020.01 1020.01 1019.97 1019.93 1019.85 1019.73 1019.61 1019.53 1019.45 1019.41 1019.29 1019.13 1018.97 1018.85 1018.77 1018.65 1018.57 1018.49 1018.41 1018.29 1018.13 1017.97 1017.81 1017.69 1017.57 1017.41 1017.29 1017.09 1016.89 1016.77 1016.69 1016.57 1016.45 1016.29 1016.13 1015.97 1015.85 1015.61 1015.41 1015.25 1015.09 1014.89 1014.69 1014.53 1014.33 1014.13 1013.97 1013.85 1013.77 1013.61 1013.45 1013.33 1013.17 1012.97 1012.81 1012.57 1012.37 1012.13 1011.89 1011.69 1011.49 1011.33 1011.21 1011.05 1010.85 1010.69
Wind_Speed
2 2 2 2 2 2 1 1 1 1 1 2 2 1 1 1 1 2 2 2 2 3 3 4 4 4 4 5 6 6 7 7 7 7 7 7 7 6 6 6 5 5 5 6 6 6 5 5 5 4 4 5 5 5 5 5 5 6 6 7 7 7 7 9 9 10 10 11 9
2 2 2 2 2 1 1 0 0 1 1 1 2 2 1 1 1 2 2 3 3 3 3 4 4 4 5 6 6 6 6 7 7 7 7 7 6 6 6 6 5 5 6 6 6 6 5 6 5 5 5 5 5 5 5 5 5 6 7 8 6 6 6 8 8 9 10 10 8
2 2 2 2 2 1 1 0 0 1 1 1 1 1 1 1 2 2 3 3 3 3 3 4 4 4 4 5 5 5 5 5 6 6 6 6 6 6 6 5 6 6 6 6 6 6 6 6 5 5 5 5 5 5 5 5 5 5 6 7 5 5 5 6 7 7 7 7 8
2 2 2 2 2 1 1 1 1 1 1 1 1 1 1 1 2 2 2 3 3 3 3 4 4 4 4 4 5 5 5 5 5 5 6 6 6 6 6 6 6 7 7 7 7 7 7 6 5 5 5 5 6 6 5 5 5 5 5 5 5 5 5 5 5 5 5 6 7
1 1 1 1 1 1 1 2 1 1 1 1 1 1 1 1 2 2 2 3 3 4 4 4 4 4 4 4 4 5 5 5 6 5 5 6 6 6 6 6 6 7 7 7 7 7 7 6 5 4 5 5 5 5 5 6 5 5 5 4 4 4 5 5 5 4 4 5 5
1 1 0 1 1 1 1 2 2 2 1 1 1 1 2 2 2 2 3 4 4 5 5 4 4 4 4 4 5 5 5 5 5 5 5 6 6 6 7 7 7 7 7 7 7 7 7 6 5 5 5 5 5 5 6 6 5 5 5 5 5 5 5 5 5 5 5 5 5
1 0 0 0 0 1 1 1 1 1 1 0 1 2 3 4 3 4 4 4 4 4 4 4 4 4 4 5 5 5 5 6 5 6 6 6 6 7 7 7 7 7 7 7 7 7 6 6 5 5 6 6 6 6 7 6 6 6 6 7 6 5 5 6 5 5 6 7 7
1 0 0 1 1 1 1 1 1 0 1 1 2 3 4 4 5 5 5 4 4 4 3 3 3 4 4 4 5 6 6 6 6 6 6 6 7 7 7 7 8 8 8 7 7 7 7 6 5 5 6 6 5 6 7 7 7 7 7 8 7 6 5 6 5 5 6 8 9
1 1 1 1 1 1 1 1 0 1 1 2 3 3 4 4 4 4 4 4 4 3 3 3 3 4 4 5 5 6 6 6 7 7 7 7 7 7 8 8 8 8 8 8 8 8 8 7 6 6 6 5 6 7 7 7 8 8 8 7 7 6 6 6 6 6 7 8 9
1 1 1 1 1 1 1 1 1 1 1 2 3 4 4 4 4 4 3 3 3 3 3 4 4 4 5 6 6 6 6 6 6 7 7 7 7 8 8 8 8 9 9 8 8 8 8 7 7 7 7 6 7 8 8 8 8 8 8 6 7 7 8 7 7 7 7 8 9
1 1 1 1 1 1 1 1 1 2 2 2 3 4 4 4 4 4 3 3 4 4 5 4 4 5 5 6 6 6 6 6 6 6 7 7 7 8 8 8 8 9 9 9 8 8 7 7 8 9 9 7 7 8 8 8 8 8 8 7 7 8 9 9 8 8 8 8 9
1 1 1 1 1 1 1 2 2 2 2 3 4 4 4 4 4 4 4 4 5 5 5 5 5 5 6 6 6 6 6 6 6 7 7 7 8 8 8 8 9 9 9 9 8 7 7 8 9 10 10 9 8 8 8 9 9 9 9 9 8 9 10 10 10 9 8 8 9
0 1 1 1 1 2 2 2 2 2 3 3 4 4 4 5 5 4 4 5 6 6 5 5 5 5 5 6 6 6 6 6 7 7 7 7 8 8 8 9 9 9 9 9 8 7 8 8 9 10 11 10 9 9 9 9 9 9 10 10 10 10 10 11 10 9 9 8 9
1 1 1 2 2 2 2 2 2 2 3 4 4 5 5 5 5 5 4 5 6 6 6 5 5 5 6 6 6 7 7 7 7 7 8 8 8 8 9 9 9 9 9 8 8 8 8 9 10 10 11 11 11 10 9 9 9 9 10 10 11 11 11 11 11 10 9 9 10
2 2 2 2 2 2 2 2 2 3 3 4 5 5 5 5 5 5 5 5 6 6 5 5 6 6 6 6 6 7 7 7 7 8 8 8 9 9 9 9 9 9 9 9 8 8 9 10 10 10 10 11 11 10 10 9 9 9 9 10 11 11 11 11 11 10 10 10 10
2 2 2 2 2 2 2 2 2 3 3 4 5 5 5 5 5 5 5 6 6 6 6 6 6 6 6 6 7 7 7 7 7 8 8 9 9 9 9 9 9 9 9 9 9 9 9 10 10 10 10 10 10 10 10 10 9 9 10 10 10 11 11 11 11 11 10 10 10
2 2 2 2 2 2 2 3 3 3 4 5 5 5 5 5 5 5 6 6 6 6 6 7 7 6 6 7 6 6 6 7 7 8 8 9 9 9 9 10 10 9 9 9 10 10 10 10 10 10 9 9 10 10 10 9 9 9 10 10 10 11 11 11 11 11 10 10 11
1 1 1 1 2 2 3 3 3 4 4 5 5 5 5 5 5 6 6 6 6 6 7 8 7 6 6 7 6 6 6 7 8 8 8 9 9 9 10 10 10 9 9 9 10 10 11 11 10 10 9 9 9 9 9 9 9 10 10 11 11 11 11 11 10 10 10 10 11
1 1 2 2 2 3 3 4 4 4 5 5 5 6 6 6 6 6 6 6 6 7 7 8 7 7 7 7 7 7 6 7 8 8 9 9 9 9 10 10 10 9 9 9 9 10 10 10 10 10 9 9 9 9 10 10 10 10 11 11 11 11 11 10 10 10 10 10 11
2 2 2 3 3 3 4 4 4 4 5 5 6 6 7 7 6 7 7 7 7 7 7 7 7 7 7 7 8 7 7 6 8 9 9 9 9 9 10 10 10 9 9 9 9 9 9 9 9 9 10 10 10 11 11 11 11 11 11 10 10 10 11 10 10 10 10 11 11
2 3 3 3 3 3 4 4 4 4 5 6 6 7 7 7 7 7 7 8 7 7 7 7 7 8 8 8 8 8 7 6 7 8 9 9 9 9 9 9 9 9 9 8 9 9 9 9 9 10 10 10 11 11 11 11 11 11 11 10 10 10 11 10 10 11 11 11 11
3 4 4 3 3 4 4 4 4 5 5 6 6 7 7 7 7 7 7 7 6 6 7 7 7 8 8 8 8 8 8 7 8 8 9 9 9 9 9 9 9 9 9 9 9 9 9 9 9 10 10 10 10 10 11 11 11 11 11 11 11 11 11 11 10 10 10 10 10
4 4 4 4 4 4 4 4 4 5 5 6 6 7 7 7 7 7 7 6 6 6 7 7 7 7 8 8 8 8 8 8 8 9 9 9 9 9 9 8 8 9 9 9 8 8 8 9 9 9 9 9 9 10 10 10 10 10 10 11 11 11 11 10 10 10 10 10 10
3 3 3 3 3 4 4 4 4 5 6 6 7 7 7 7 7 7 7 7 7 7 7 7 7 7 8 8 8 8 8 8 9 9 9 9 9 9 9 9 8 9 9 8 8 9 10 9 9 8 8 8 8 9 9 9 9 9 9 10 10 10 10 10 10 10 10 10 10
4 3 3 3 3 4 4 4 5 6 7 7 7 7 7 7 7 7 7 7 7 7 8 7 7 7 7 7 8 8 8 8 9 9 9 10 10 9 9 9 8 8 8 8 13 17 18 17 13 10 9 8 8 8 8 8 8 9 9 9 10 10 10 10 10 10 10 11 11
3 3 3 4 4 4 5 6 6 7 7 7 7 7 7 7 7 7 7 7 8 8 7 7 7 7 7 7 8 8 8 8 9 9 9 10 10 10 9 9 8 7 7 10 15 19 22 23 22 18 14 10 9 9 9 8 9 9 9 9 9 9 10 10 10 11 11 11 11
3 4 4 4 5 6 6 7 6 6 6 6 7 7 7 7 6 6 7 7 7 7 7 7 6 7 8 7 8 8 9 9 9 9 9 9 10 10 10 9 8 7 8 13 18 21 23 24 25 23 20 14 11 9 9 8 8 8 8 8 8 8 9 10 11 11 12 12 12
4 4 5 5 6 7 7 7 6 7 7 7 7 7 7 6 7 7 7 7 7 7 6 6 6 6 6 6 7 8 9 9 9 9 9 9 10 10 10 9 8 9 11 16 20 23 24 24 25 24 23 18 12 9 8 8 8 8 7 7 7 8 9 9 9 10 11 12 12
5 5 5 6 7 7 7 7 7 7 7 7 7 6 6 6 6 7 7 7 7 7 6 6 6 5 5 6 8 9 9 9 9 8 8 9 10 10 10 10 9 11 14 19 21 23 24 24 24 24 24 22 14 10 7 7 7 7 7 7 7 8 8 9 9 10 11 12 12
6 6 6 7 8 8 7 7 8 8 7 6 6 6 6 6 7 7 8 8 8 7 7 6 6 6 7 8 8 9 9 9 9 8 8 9 10 11 11 11 10 11 14 19 21 23 24 24 24 24 24 24 18 12 8 7 7 7 7 7 7 8 9 10 11 11 12 12 12
7 7 7 7 8 8 8 8 8 7 7 6 6 6 6 7 7 7 7 7 7 8 8 7 7 8 9 8 8 8 9 9 8 8 8 9 11 11 11 11 10 11 14 18 21 23 24 25 25 25 25 25 19 13 9 8 8 7 7 7 8 9 10 10 11 11 12 13 13
7 7 7 7 8 8 8 8 7 7 6 6 6 6 7 7 7 7 7 7 7 7 7 7 8 9 9 9 8 8 9 9 9 9 9 9 10 10 10 11 10 11 14 19 22 24 25 25 25 25 25 25 20 14 10 8 8 8 8 9 10 11 11 10 10 11 13 14 14
7 7 7 7 8 8 8 8 7 7 6 6 6 6 7 8 7 7 7 7 7 7 7 7 9 9 9 9 8 9 9 9 10 10 10 10 10 11 11 11 10 12 15 20 23 25 25 26 26 25 25 25 20 14 10 9 8 8 8 9 10 11 11 11 11 12 13 14 14
7 7 7 7 8 8 8 7 7 6 6 6 6 7 7 7 8 8 8 7 7 7 7 7 8 8 7 7 8 9 10 10 10 10 10 10 10 10 11 10 9 12 17 22 24 25 25 26 26 26 25 25 17 12 9 9 9 9 9 10 10 10 11 12 12 13 13 14 13
7 7 7 7 7 7 7 7 6 6 6 6 7 7 7 7 7 8 8 8 7 7 7 7 7 7 7 8 7 8 9 11 11 10 10 10 10 11 12 12 11 14 18 22 24 25 25 25 25 26 25 21 14 10 8 9 9 9 10 10 11 11 12 12 12 12 12 13 13
7 6 7 7 7 7 7 6 6 6 6 7 7 8 8 7 7 7 8 8 8 7 7 7 7 7 7 8 8 8 9 10 11 11 11 11 11 12 12 13 12 15 18 21 23 24 25 25 25 25 23 17 11 8 8 8 8 9 10 11 11 12 12 12 12 12 12 12 12
6 6 6 6 7 7 6 6 6 6 6 7 7 7 8 8 8 7 7 7 7 7 7 8 8 8 8 8 8 9 9 9 10 11 11 11 11 12 13 13 13 14 17 20 22 24 25 25 25 24 21 14 10 8 8 7 7 8 9 10 11 12 12 12 12 12 12 12 13
6 5 5 5 6 6 6 6 6 6 7 7 7 7 7 7 7 7 7 7 7 7 8 8 8 9 9 9 10 10 11 10 10 11 12 12 12 12 13 14 14 14 15 18 21 23 24 24 24 23 20 13 10 9 8 7 7 8 9 10 11 11 11 11 10 10 11 12 15
5 4 4 5 5 6 6 6 6 6 7 7 7 7 7 7 6 6 7 7 6 7 7 8 9 10 10 11 11 11 11 11 11 11 12 12 12 13 14 15 14 13 14 18 21 22 23 23 23 23 20 14 11 8 7 7 7 9 10 10 11 11 11 10 9 9 10 12 17
4 4 4 4 5 5 6 6 7 6 6 6 7 7 7 7 7 7 7 7 7 7 7 8 10 11 11 12 12 12 12 12 11 11 11 12 13 15 16 15 13 13 14 17 20 21 22 22 22 22 20 14 10 8 7 7 8 9 10 11 10 10 10 9 8 8 9 11 14
3 3 4 4 5 5 6 6 7 6 6 6 7 7 6 7 7 7 7 7 7 7 8 9 10 11 12 12 11 12 12 13 12 12 12 12 13 14 14 13 13 12 13 14 17 19 21 21 22 22 21 15 11 8 7 7 8 10 11 12 11 10 9 8 8 8 9 10 10
Wind_Direction
84 93 107 121 130 138 150 171 185 186 184 185 204 213 216 212 252 263 265 263 268 272 275 277 276 279 282 283 284 285 286 288 290 290 291 290 287 285 286 286 288 291 293 294 296 298 298 297 296 294 293 290 287 285 283 281 279 277 274 272 271 269 266 265 264 263 260 258 257
90 98 105 111 113 113 114 132 218 223 210 201 203 206 208 214 249 266 274 274 272 276 280 284 284 286 287 288 287 288 289 292 293 295 296 294 291 289 289 291 293 295 296 298 299 300 299 299 298 296 295 292 290 288 285 284 282 281 280 276 275 273 272 269 267 265 263 261 260
111 116 117 112 110 109 111 144 232 247 244 234 215 205 209 221 244 263 272 274 277 281 286 288 288 289 290 290 292 292 292 293 295 297 297 295 294 295 296 297 300 300 301 301 300 300 299 298 298 297 295 294 291 289 288 286 285 284 282 280 279 278 277 274 272 269 268 266 263
103 107 108 105 108 120 145 181 225 249 252 249 238 228 234 240 251 264 273 280 287 288 287 286 289 290 290 292 296 299 300 299 300 300 299 299 299 300 301 302 304 304 303 303 301 299 298 298 298 296 294 291 290 289 288 288 289 287 285 284 285 284 282 281 279 277 275 274 269
68 84 107 120 141 166 183 187 208 231 243 246 271 281 278 268 270 278 287 293 290 286 283 284 287 290 293 298 303 306 306 306 307 307 305 305 304 304 304 306 304 303 303 303 301 300 300 300 299 297 294 292 290 288 287 289 291 292 291 291 290 290 289 289 287 287 285 283 283
53 54 104 143 168 186 196 197 205 216 225 215 287 298 294 287 288 289 289 286 284 283 284 286 290 296 302 309 311 311 310 310 310 310 309 307 306 307 308 307 304 304 304 303 302 301 301 303 302 300 297 295 293 291 290 293 295 295 295 295 293 292 292 292 293 294 295 294 295
89 42 350 245 203 212 223 225 217 214 213 201 288 290 287 285 287 284 281 279 285 288 291 294 299 304 308 312 313 312 311 311 310 309 308 307 307 307 307 306 306 305 304 303 303 303 303 303 304 302 300 300 298 296 296 297 297 297 296 294 293 293 293 291 293 295 297 296 297
84 40 283 251 235 242 250 249 247 265 295 297 286 283 281 282 284 284 285 289 291 292 294 299 302 304 305 309 309 310 310 311 310 309 308 307 307 307 307 306 307 306 304 303 304 304 304 304 303 301 300 301 298 298 298 299 299 297 295 294 293 293 293 292 294 296 297 298 298
14 340 303 288 271 271 271 267 265 295 303 296 286 282 282 284 285 288 291 292 290 290 296 301 302 303 306 309 308 308 307 308 307 306 306 306 306 306 306 306 306 305 304 303 303 303 303 304 302 300 298 298 298 297 298 300 299 296 294 293 294 294 293 293 295 297 297 298 298
351 329 322 322 321 322 321 314 322 316 306 299 293 291 291 293 293 290 287 284 293 302 305 303 306 308 309 307 306 304 303 303 303 303 303 304 303 304 304 304 304 304 303 303 303 303 303 302 300 298 296 296 296 296 297 298 297 295 293 292 294 295 295 294 295 296 296 295 294
323 310 310 317 322 334 347 349 343 335 321 310 303 301 300 300 297 291 289 293 307 308 305 302 306 307 304 303 301 299 298 299 299 300 300 300 300 300 299 299 300 300 300 301 302 303 303 301 299 298 297 297 296 296 297 296 295 294 292 291 293 294 294 293 293 293 292 292 291
308 298 301 311 328 358 9 4 348 337 326 315 307 304 302 298 294 294 299 309 310 305 301 300 302 301 298 297 295 295 296 296 296 297 297 297 297 297 297 297 297 297 297 298 299 301 300 299 298 298 297 297 297 297 296 296 295 294 293 292 292 292 292 291 291 290 290 290 289
336 335 341 347 4 16 16 3 345 332 320 311 304 301 298 296 294 298 305 308 304 301 300 299 297 294 292 291 292 293 293 294 294 295 295 295 296 296 297 296 296 295 295 295 297 297 297 296 296 296 297 297 296 295 294 294 293 292 292 292 291 290 289 289 289 289 289 289 288
25 13 7 4 13 16 11 354 334 320 310 304 298 296 296 297 298 301 304 303 299 297 297 297 295 292 289 288 289 290 290 292 293 294 294 294 295 295 295 295 294 293 293 294 294 294 294 294 294 294 294 294 294 293 292 291 290 289 288 289 289 288 287 288 288 289 289 289 287
24 15 9 11 13 9 357 336 317 306 300 297 293 294 296 298 299 301 301 299 295 293 293 295 294 291 289 287 287 287 289 291 292 294 294 294 294 293 293 293 293 292 292 292 293 292 291 291 291 292 292 292 292 291 291 289 287 285 284 284 284 285 285 286 288 288 288 286 286
18 7 4 10 4 351 333 313 300 296 294 292 292 294 296 297 299 300 300 297 294 294 293 292 291 291 291 290 288 289 290 292 293 293 294 294 294 293 292 292 292 292 291 291 292 291 290 289 290 290 290 289 289 289 288 287 285 283 281 280 281 282 283 284 285 285 284 282 283
9 356 352 359 344 324 307 295 292 291 291 291 292 294 295 296 297 298 297 294 294 294 293 291 290 291 293 293 292 292 293 294 294 293 293 292 292 292 292 292 291 290 290 290 290 291 291 290 290 289 289 287 287 286 285 284 283 282 280 280 279 279 279 280 281 280 280 280 279
346 330 326 325 306 294 288 285 286 288 288 289 291 292 293 293 295 295 294 292 291 291 291 291 290 291 292 293 293 293 294 295 293 292 291 291 291 291 291 291 290 289 289 288 288 289 290 291 291 290 289 287 286 284 283 283 281 280 279 279 277 277 276 276 276 275 275 275 275
303 296 290 282 274 274 275 278 281 283 285 286 288 290 291 291 290 291 292 291 289 288 288 290 292 292 292 291 292 293 293 293 292 292 291 290 291 291 291 291 290 290 289 288 288 288 288 289 290 289 288 287 286 285 283 281 280 279 278 277 276 276 275 274 272 271 271 271 271
261 261 259 255 257 262 268 272 276 279 282 285 288 289 289 288 288 288 289 288 287 288 288 290 293 293 294 293 293 294 293 292 293 292 292 292 292 292 291 291 291 290 290 289 288 288 288 288 287 287 286 286 285 284 283 281 280 279 278 276 276 275 274 273 271 270 268 267 267
244 243 243 243 247 254 261 266 272 276 281 284 285 286 286 287 287 286 284 284 286 289 291 291 292 293 294 295 295 294 293 294 294 293 293 294 294 292 292 292 292 292 292 291 290 289 288 286 285 285 284 283 282 281 281 281 280 279 278 277 276 275 274 273 272 271 270 268 266
238 238 237 239 243 251 260 266 272 276 280 281 282 283 283 285 285 283 282 284 289 291 292 291 291 292 292 293 294 294 294 295 295 294 294 295 295 294 294 295 295 295 294 293 292 290 288 286 283 281 279 279 278 276 276 277 278 278 278 277 277 276 275 275 274 274 272 270 268
236 238 238 240 247 256 265 270 275 279 280 281 281 283 283 284 284 284 286 289 292 293 292 292 292 291 291 291 292 293 294 296 296 296 295 296 296 296 296 297 296 295 293 292 290 288 287 285 282 279 276 274 274 273 273 273 275 276 277 277 278 278 277 278 277 276 275 274 272
235 240 243 246 254 261 268 274 277 279 279 280 281 282 283 285 287 289 291 293 293 293 293 294 294 293 293 292 292 293 294 296 297 298 297 297 296 296 296 296 295 293 291 289 290 290 290 289 286 283 280 277 276 275 275 273 274 275 276 278 280 281 282 282 282 281 281 280 279
237 243 250 256 261 266 271 274 275 275 276 277 279 281 284 286 289 291 294 295 294 293 293 293 294 295 295 295 294 294 294 295 296 297 298 298 297 297 296 296 295 293 291 289 292 294 296 298 299 297 293 290 288 287 285 282 280 279 279 280 282 285 287 288 287 286 285 284 283
242 249 256 258 264 268 271 270 270 271 273 277 281 284 286 287 289 292 294 295 294 294 294 295 296 297 298 298 298 298 297 296 296 296 296 297 297 296 295 294 293 293 291 291 294 297 300 302 303 304 303 300 298 296 293 290 286 283 282 282 283 286 289 291 290 288 287 286 284
250 254 258 261 266 268 267 266 268 271 275 280 283 285 286 288 291 293 294 293 293 294 295 296 295 297 299 299 299 298 297 297 296 295 294 293 294 294 293 292 292 290 289 291 295 298 301 304 305 306 306 303 301 298 295 292 289 286 284 283 283 285 286 287 289 289 288 287 285
253 256 260 265 268 267 267 267 271 274 277 279 282 284 286 289 291 292 293 293 294 296 297 297 295 296 298 299 298 296 295 295 295 294 293 292 291 291 291 291 290 289 290 293 298 301 303 305 306 306 306 305 301 297 293 292 291 290 288 285 284 284 284 284 286 287 287 287 286
254 258 262 265 266 267 268 271 272 273 276 279 281 284 288 290 291 292 293 294 297 299 299 298 299 300 300 299 297 296 295 294 294 294 294 293 292 290 289 289 289 289 292 296 300 302 304 305 305 306 306 306 304 300 297 294 293 293 291 288 286 286 286 285 284 285 285 286 286
256 258 261 262 265 267 269 269 269 272 275 279 283 287 289 291 293 294 296 297 298 297 296 297 299 299 298 296 296 297 296 294 294 293 293 292 291 290 289 289 289 291 294 297 300 302 304 305 306 306 306 307 305 302 297 295 294 293 292 289 287 286 286 285 283 283 284 285 286
259 259 260 261 264 266 268 268 270 273 277 281 285 287 290 292 294 295 296 297 296 296 296 296 296 295 293 293 294 294 294 294 294 293 292 290 290 290 290 291 290 291 293 297 300 302 304 306 307 307 307 307 306 303 298 296 295 293 292 290 287 286 285 284 282 282 282 283 284
261 260 260 262 264 266 268 270 272 276 278 280 282 286 289 292 293 293 294 294 295 297 298 298 297 296 295 295 294 294 293 293 293 292 291 290 289 290 291 292 291 291 294 298 301 304 306 307 307 307 307 307 305 303 299 298 296 293 290 288 286 285 284 282 281 280 280 280 281
261 261 261 262 265 268 270 272 274 275 277 279 283 288 292 294 295 296 295 295 296 296 297 297 297 296 296 297 297 296 295 293 292 292 291 291 290 291 292 292 291 293 296 300 303 305 307 308 308 308 307 307 306 304 301 298 296 293 291 289 286 284 283 280 278 278 277 278 278
262 262 262 264 267 269 272 273 273 274 278 283 288 292 295 297 299 299 299 298 297 296 294 293 293 292 292 293 294 294 295 295 294 294 293 292 292 292 292 293 292 295 299 302 304 306 307 308 308 308 308 308 306 303 300 297 294 292 290 288 287 284 282 279 276 275 274 275 275
264 265 268 268 270 271 272 273 273 277 283 291 295 297 297 297 297 297 298 298 298 297 295 293 291 290 291 291 291 291 293 295 295 294 294 293 293 293 293 293 292 296 299 302 304 306 307 308 308 308 308 308 306 302 298 294 293 291 290 289 287 285 282 279 277 276 274 273 273
264 266 268 271 272 272 272 272 277 283 291 295 298 299 299 298 297 297 297 298 299 298 296 294 294 294 295 295 294 293 293 294 294 295 295 295 295 295 295 294 294 296 299 302 304 306 307 308 309 309 309 308 305 300 296 293 292 291 291 290 287 285 282 280 279 277 276 274 272
262 263 265 270 272 272 272 275 283 291 296 297 297 298 299 300 299 299 299 300 300 298 297 296 297 296 296 296 296 294 293 292 294 295 295 296 296 296 296 296 295 297 299 302 304 306 307 309 309 310 309 307 303 300 297 294 293 292 291 289 287 284 282 281 280 279 277 274 273
259 259 261 267 272 275 278 284 291 294 296 296 296 297 299 299 299 299 300 300 299 298 298 298 298 297 296 296 295 294 293 292 293 294 295 296 296 296 296 296 296 297 298 302 304 306 307 309 309 310 310 307 305 303 300 297 294 292 290 289 286 284 282 281 280 279 277 275 275
261 260 262 269 276 281 286 291 292 293 294 295 297 298 299 299 298 298 298 298 297 296 297 298 297 296 296 297 297 297 296 295 294 294 295 295 295 295 296 296 297 298 299 302 304 305 307 308 309 310 310 308 307 304 301 296 294 291 290 288 285 282 280 278 278 278 277 274 276
266 268 272 276 281 285 289 291 291 290 291 294 296 297 297 297 296 296 297 298 296 296 296 296 296 296 297 299 299 298 298 297 296 295 294 293 294 295 297 297 297 297 298 300 302 304 305 308 309 311 312 310 308 304 300 296 293 291 289 286 283 280 278 276 275 277 277 276 278
272 278 282 283 284 286 289 290 290 290 290 292 292 292 293 295 296 297 298 298 297 297 297 297 296 297 297 299 299 299 298 298 297 296 294 294 294 295 296 296 295 295 296 297 300 302 305 308 311 313 314 312 310 305 301 297 294 291 288 285 281 278 276 276 278 279 280 279 280